This demonstration page uses our WeatherBlox Daily Observations layout. Learn more.

Left ArrowRight Arrow

Hourly Observations for October 20, 2015

Temp ( °F °C ) Dew Point ( °F °C ) Humidity (%) Winds ( mph kmh ) Pressure ( in mb ) Visibility ( mi km ) Precip ( " mm )
12:15 am 00:15 Clear 63 17 45 7 52 52 SSE 7 11 29.83 1010 10 16 0.00 0.00
12:35 am 00:35 Clear 61 16 45 7 55 55 SSE 8 13 29.83 1010 10 16 0.00 0.00
12:55 am 00:55 Clear 61 16 45 7 55 55 SSE 8 13 29.80 1009 10 16 0.00 0.00
1:15 am 01:15 Clear 61 16 45 7 55 55 SSE 8 13 29.80 1009 10 16 0.00 0.00
1:35 am 01:35 Clear 61 16 45 7 55 55 SSE 5 7 29.80 1009 10 16 0.00 0.00
1:55 am 01:55 Clear 59 15 45 7 59 59 SSE 5 7 29.80 1009 10 16 0.00 0.00
2:15 am 02:15 Clear 57 14 45 7 63 63 SE 6 9 29.83 1010 10 16 0.00 0.00
2:35 am 02:35 Clear 55 13 45 7 67 67 SE 6 9 29.83 1010 10 16 0.00 0.00
2:55 am 02:55 Clear 57 14 45 7 63 63 SE 6 9 29.83 1010 10 16 0.00 0.00
3:15 am 03:15 Clear 55 13 45 7 67 67 SE 6 9 29.83 1010 10 16 0.00 0.00
3:35 am 03:35 Clear 55 13 43 6 63 63 SE 5 7 29.83 1010 10 16 0.00 0.00
3:55 am 03:55 Clear 55 13 43 6 63 63 SE 6 9 29.83 1010 10 16 0.00 0.00
4:15 am 04:15 Clear 55 13 43 6 63 63 SSE 6 9 29.83 1010 10 16 0.00 0.00
4:35 am 04:35 Clear 54 12 43 6 67 67 SSE 5 7 29.83 1010 10 16 0.00 0.00
4:55 am 04:55 Clear 54 12 43 6 67 67 Calm 29.83 1010 10 16 0.00 0.00
5:15 am 05:15 Clear 54 12 43 6 67 67 SE 3 6 29.83 1010 10 16 0.00 0.00
5:35 am 05:35 Clear 52 11 43 6 72 72 Calm 29.83 1010 10 16 0.00 0.00
5:55 am 05:55 Clear 52 11 43 6 72 72 Calm 29.83 1010 10 16 0.00 0.00
6:15 am 06:15 Clear 50 10 43 6 76 76 Calm 29.85 1011 10 16 0.00 0.00
6:35 am 06:35 Clear 50 10 43 6 76 76 Calm 29.85 1011 10 16 0.00 0.00
6:55 am 06:55 Clear 48 9 41 5 76 76 Calm 29.85 1011 10 16 0.00 0.00
7:15 am 07:15 Clear 52 11 43 6 72 72 Calm 29.83 1010 10 16 0.00 0.00
7:35 am 07:35 Clear 50 10 41 5 71 71 NNE 3 6 29.85 1011 10 16 0.00 0.00
7:55 am 07:55 Sunny 50 10 43 6 76 76 N 3 6 29.85 1011 10 16 0.00 0.00
8:15 am 08:15 Sunny 48 9 41 5 76 76 Calm 29.88 1012 5 8 0.00 0.00
8:35 am 08:35 Sunny 50 10 41 5 71 71 Calm 29.88 1012 8 13 0.00 0.00
8:55 am 08:55 Sunny 52 11 43 6 72 72 Calm 29.85 1011 10 16 0.00 0.00
9:15 am 09:15 Sunny 54 12 45 7 72 72 Calm 29.85 1011 9 14 0.00 0.00
9:35 am 09:35 Sunny 57 14 46 8 67 67 ENE 3 6 29.85 1011 8 13 0.00 0.00
9:55 am 09:55 Sunny 59 15 46 8 63 63 Calm 29.83 1010 10 16 0.00 0.00
10:15 am 10:15 Sunny 61 16 46 8 59 59 Calm 29.83 1010 10 16 0.00 0.00
10:35 am 10:35 Sunny 63 17 48 9 59 59 Calm 29.83 1010 10 16 0.00 0.00
10:55 am 10:55 Sunny 64 18 48 9 56 56 Calm 29.83 1010 10 16 0.00 0.00
11:15 am 11:15 Sunny 66 19 48 9 52 52 Calm 29.80 1009 10 16 0.00 0.00
11:35 am 11:35 Sunny 68 20 50 10 53 53 Calm 29.80 1009 10 16 0.00 0.00
11:55 am 11:55 Sunny 70 21 48 9 46 46 Calm 29.80 1009 10 16 0.00 0.00
12:15 pm 12:15 Sunny 72 22 52 11 50 50 ENE 6 9 29.80 1009 10 16 0.00 0.00
12:35 pm 12:35 Sunny 73 23 52 11 47 47 E 5 7 29.77 1008 9 14 0.00 0.00
12:55 pm 12:55 Sunny 73 23 52 11 47 47 ENE 8 13 29.77 1008 10 16 0.00 0.00
1:15 pm 13:15 Sunny 75 24 52 11 44 44 SE 7 11 29.77 1008 9 14 0.00 0.00
1:35 pm 13:35 Sunny 77 25 52 11 42 42 SE 7 11 29.77 1008 10 16 0.00 0.00
1:55 pm 13:55 Sunny 77 25 52 11 42 42 ESE 6 9 29.77 1008 10 16 0.00 0.00
2:15 pm 14:15 Sunny 79 26 52 11 39 39 ESE 7 11 29.71 1006 10 16 0.00 0.00
2:35 pm 14:35 Sunny 79 26 52 11 39 39 SE 9 15 29.77 1008 10 16 0.00 0.00
2:55 pm 14:55 Sunny 81 27 52 11 37 37 SE 9 15 29.71 1006 10 16 0.00 0.00
3:15 pm 15:15 Sunny 81 27 50 10 34 34 ESE 6 9 29.71 1006 10 16 0.00 0.00
3:35 pm 15:35 Sunny 81 27 52 11 37 37 ESE 6 9 29.71 1006 10 16 0.00 0.00
3:55 pm 15:55 Sunny 81 27 52 11 37 37 SSE 3 6 29.71 1006 10 16 0.00 0.00
4:15 pm 16:15 Sunny 81 27 50 10 34 34 ESE 8 13 29.71 1006 10 16 0.00 0.00
4:35 pm 16:35 Sunny 81 27 52 11 37 37 SE 6 9 29.71 1006 10 16 0.00 0.00
4:55 pm 16:55 Sunny 81 27 50 10 34 34 S 6 9 29.71 1006 10 16 0.00 0.00
5:15 pm 17:15 Sunny 81 27 50 10 34 34 Calm 29.71 1006 10 16 0.00 0.00
5:35 pm 17:35 Sunny 79 26 52 11 39 39 ESE 5 7 29.77 1008 10 16 0.00 0.00
5:55 pm 17:55 Sunny 79 26 52 11 39 39 ESE 5 7 29.71 1006 10 16 0.00 0.00
6:15 pm 18:15 Sunny 77 25 52 11 42 42 E 5 7 29.77 1008 10 16 0.00 0.00
6:35 pm 18:35 Sunny 77 25 50 10 39 39 E 3 6 29.77 1008 10 16 0.00 0.00
6:55 pm 18:55 Clear 73 23 48 9 41 41 ENE 5 7 29.77 1008 7 11 0.00 0.00
7:15 pm 19:15 Clear 70 21 48 9 46 46 NNE 8 13 29.80 1009 4 6 0.00 0.00
7:35 pm 19:35 Clear 66 19 48 9 52 52 NNE 8 13 29.80 1009 4 6 0.00 0.00
7:55 pm 19:55 Clear 64 18 48 9 56 56 NNE 9 15 29.83 1010 7 11 0.00 0.00
8:15 pm 20:15 Clear 64 18 48 9 56 56 NNE 7 11 29.83 1010 7 11 0.00 0.00
8:35 pm 20:35 Clear 63 17 46 8 56 56 NE 6 9 29.83 1010 8 13 0.00 0.00
8:55 pm 20:55 Clear 63 17 46 8 56 56 NNE 7 11 29.83 1010 9 14 0.00 0.00
9:15 pm 21:15 Clear 63 17 46 8 56 56 NNE 7 11 29.83 1010 10 16 0.00 0.00
9:35 pm 21:35 Clear 63 17 48 9 59 59 NNE 6 9 29.83 1010 10 16 0.00 0.00
9:55 pm 21:55 Clear 63 17 48 9 59 59 NNE 9 15 29.83 1010 10 16 0.00 0.00
10:15 pm 22:15 Clear 63 17 48 9 59 59 N 5 7 29.85 1011 10 16 0.00 0.00
10:35 pm 22:35 Clear 64 18 48 9 56 56 NW 3 6 29.85 1011 10 16 0.00 0.00
10:55 pm 22:55 Clear 63 17 48 9 59 59 WNW 5 7 29.85 1011 10 16 0.00 0.00
11:15 pm 23:15 Clear 63 17 48 9 59 59 W 8 13 29.88 1012 10 16 0.00 0.00
11:35 pm 23:35 Clear 64 18 48 9 56 56 W 9 15 29.88 1012 10 16 0.00 0.00
11:55 pm 23:55 Clear 64 18 48 9 56 56 W 7 11 29.88 1012 10 16 0.00 0.00

Powered by AerisWeather